Weather History for London-Corbin, KY

Change the Weather History Date:

Sunday, April 15, 2012

  Actual Average Record
Temperature  
Mean Temperature 66 °F 56 °F  
Max Temperature 79 °F 69 °F 85 °F (1977)
Min Temperature 52 °F 44 °F 27 °F (1963)
Degree Days  
Heating Degree Days 0 9  
Month to date heating degree days 149 168  
Since 1 July heating degree days 3437 3993  
Cooling Degree Days 1 1  
Month to date cooling degree days 7 7  
Year to date cooling degree days 29 10  
Growing Degree Days 16 (Base 50)    
Moisture  
Dew Point 50 °F    
Average Humidity 61    
Maximum Humidity 83    
Minimum Humidity 39    
Precipitation  
Precipitation 0.00 in 0.12 in 1.86 in (1956)
Month to date precipitation 1.18 1.94  
Year to date precipitation 11.84 13.24  
Sea Level Pressure  
Sea Level Pressure 30.06 in    
Wind  
Wind Speed 7 mph (South)    
Max Wind Speed 20 mph    
Max Gust Speed 28 mph    
Visibility 10 miles    
Events      
T = Trace of Precipitation, MM = Missing Value Source: NWS Daily Summary

Daily Weather History Graph

Daily Weather History Graph

Search for Another Location

Airport:

Trip Planner

Search our weather history database for the weather conditions in past years. The results will help you decide how hot, cold, wet, or windy it might be!

Date:

Astronomy

Apr. 15, 2012 Rise Set
Actual Time 7:01 AM EDT 8:11 PM EDT
Civil Twilight 6:34 AM EDT 8:38 PM EDT
Nautical Twilight 6:02 AM EDT 9:10 PM EDT
Astronomical Twilight 5:29 AM EDT 9:44 PM EDT
Moon 3:51 AM EDT 3:12 PM EDT
Length of Visible Light 14h 04m
Length of Day
13h 10m
Waning Crescent, 28% of the Moon is Illuminated
Apr 15
Waning Crescent
Apr 21
New
Apr 29
First Quarter
May 5
Full
May 12
Last Quarter

Hourly Weather History & Observations

Time (EDT) Temp. Dew Point Humidity Pressure Visibility Wind Dir Wind Speed Gust Speed Precip Events Conditions
12:53 AM 55.9 °F 48.0 °F 75% 30.08 in 10.0 mi SSW 3.5 mph - N/A   Clear
1:53 AM 55.9 °F 48.0 °F 75% 30.06 in 10.0 mi Calm Calm - N/A   Clear
2:53 AM 53.1 °F 48.0 °F 83% 30.05 in 10.0 mi Calm Calm - N/A   Clear
3:53 AM 52.0 °F 46.9 °F 83% 30.04 in 10.0 mi Calm Calm - N/A   Clear
4:53 AM 52.0 °F 46.0 °F 80% 30.04 in 10.0 mi Calm Calm - N/A   Clear
5:53 AM 53.1 °F 46.0 °F 77% 30.05 in 10.0 mi Calm Calm - N/A   Clear
6:53 AM 57.0 °F 45.0 °F 64% 30.06 in 10.0 mi South 4.6 mph - N/A   Clear
7:53 AM 57.9 °F 45.0 °F 62% 30.07 in 10.0 mi Calm Calm - N/A   Clear
8:53 AM 64.0 °F 48.9 °F 58% 30.10 in 10.0 mi South 3.5 mph - N/A   Clear
9:53 AM 68.0 °F 50.0 °F 52% 30.12 in 10.0 mi South 8.1 mph - N/A   Clear
10:53 AM 71.1 °F 52.0 °F 51% 30.11 in 10.0 mi South 9.2 mph 18.4 mph N/A   Clear
11:53 AM 73.9 °F 52.0 °F 46% 30.10 in 10.0 mi South 12.7 mph 19.6 mph N/A   Clear
12:53 PM 75.9 °F 51.1 °F 42% 30.09 in 10.0 mi SW 12.7 mph 24.2 mph N/A   Clear
1:53 PM 77.0 °F 52.0 °F 42% 30.08 in 10.0 mi South 16.1 mph 21.9 mph N/A   Clear
2:53 PM 78.1 °F 51.1 °F 39% 30.06 in 10.0 mi South 17.3 mph 26.5 mph N/A   Clear
3:53 PM 79.0 °F 52.0 °F 39% 30.05 in 10.0 mi SSW 12.7 mph 24.2 mph N/A   Clear
4:53 PM 78.1 °F 51.1 °F 39% 30.04 in 10.0 mi SSW 12.7 mph 23.0 mph N/A   Clear
5:53 PM 78.1 °F 52.0 °F 40% 30.04 in 10.0 mi SSW 11.5 mph - N/A   Clear
6:53 PM 75.0 °F 52.0 °F 44% 30.03 in 10.0 mi SSW 10.4 mph - N/A   Clear
7:53 PM 73.0 °F 52.0 °F 48% 30.02 in 10.0 mi SSW 6.9 mph - N/A   Clear
8:53 PM 71.1 °F 53.1 °F 53% 30.02 in 10.0 mi South 6.9 mph - N/A   Clear
9:53 PM 70.0 °F 53.1 °F 55% 30.03 in 10.0 mi South 12.7 mph 19.6 mph N/A   Clear
10:53 PM 69.1 °F 53.1 °F 57% 30.02 in 10.0 mi South 6.9 mph - N/A   Clear
11:53 PM 66.0 °F 53.1 °F 63% 30.02 in 10.0 mi SSE 4.6 mph - N/A   Clear